EW4999 Weather Reports


Display with metric or nautical units.
time (UTC)temp
F
wind
direction
speed
MPH
gust
MPH
rain 1hr
in
rain 24hr
in
rain mn
in
humidity
%
barometer
mb
20260504140444 55 161 4.0 9.0 0.00 0.00 0.00 56 1007.2
20260504100439 42 229 1.0 3.0 0.00 0.00 0.00 84 1008.0
20260504081157 41 174 0.0 2.0 0.00 0.00 0.00 85 1008.1
20260504045646 37 231 0.0 1.0 0.00 0.00 0.00 82 1008.5
20260504044145 37 230 0.0 2.0 0.00 0.00 0.00 82 1008.4
20260504042646 36 58 1.0 2.0 0.00 0.00 0.00 80 1008.3
20260504041144 36 53 0.0 0.0 0.00 0.00 0.00 80 1008.3
20260504040416 35 53 0.0 0.0 0.00 0.00 0.00 81 1008.4
20260504034142 35 53 0.0 0.0 0.00 0.00 0.00 82 1008.3
20260504032643 34 53 0.0 0.0 0.00 0.00 0.00 82 1008.1
20260504031142 34 53 0.0 0.0 0.00 0.00 0.00 81 1008.3
20260504025638 35 44 0.0 0.0 0.00 0.00 0.00 77 1008.3
20260504024137 36 44 0.0 0.0 0.00 0.00 0.00 75 1008.3
20260504023411 36 44 0.0 0.0 0.00 0.00 0.00 74 1008.3
20260504021134 36 44 0.0 0.0 0.00 0.00 0.00 75 1008.4
20260504015635 36 44 0.0 2.0 0.00 0.00 0.00 74 1008.1
20260504014135 36 5 0.0 2.0 0.00 0.00 0.00 77 1008.0
20260504012630 37 5 0.0 0.0 0.00 0.00 0.00 75 1007.9
20260504011130 37 5 0.0 2.0 0.00 0.00 0.00 71 1007.7
20260504005632 38 5 0.0 0.0 0.00 0.00 0.00 70 1007.5
20260504004126 39 5 0.0 0.0 0.00 0.00 0.00 68 1007.3
20260504002623 40 5 0.0 2.0 0.00 0.00 0.00 66 1007.3
20260504001123 41 5 0.0 0.0 0.00 0.00 0.00 62 1007.1
20260503235624 43 5 0.0 0.0 0.00 0.00 0.00 58 1007.0
20260503234123 45 5 0.0 2.0 0.00 0.00 0.00 56 1006.9
20260503232620 46 5 0.0 3.0 0.00 0.00 0.00 51 1006.7
20260503231115 47 5 0.0 6.0 0.00 0.00 0.00 47 1006.7
20260503225613 47 58 1.0 6.0 0.00 0.00 0.00 47 1006.6
20260503224111 47 282 2.0 8.0 0.00 0.00 0.00 46 1006.6
20260503222611 47 121 2.0 7.0 0.00 0.00 0.00 47 1006.6
20260503221112 47 202 2.0 15.0 0.00 0.00 0.00 47 1006.6
20260503215613 47 319 3.0 15.0 0.00 0.00 0.00 47 1006.5
20260503214107 48 286 2.0 9.0 0.00 0.00 0.00 48 1006.3
20260503212605 47 54 2.0 8.0 0.00 0.00 0.00 48 1006.3
20260503211838 47 305 2.0 13.0 0.00 0.00 0.00 49 1006.3
20260503205605 47 30 3.0 15.0 0.00 0.00 0.00 48 1006.4
20260503204106 47 53 3.0 8.0 0.00 0.00 0.00 47 1006.4
20260503202606 47 14 2.0 9.0 0.00 0.00 0.00 47 1006.3
20260503201101 47 310 2.0 10.0 0.00 0.00 0.00 47 1006.3
20260503195559 47 303 3.0 12.0 0.00 0.00 0.00 46 1006.3
20260503194059 47 78 4.0 13.0 0.00 0.00 0.00 47 1006.3
20260503192559 46 26 4.0 13.0 0.00 0.00 0.00 48 1006.4
20260503191059 47 71 5.0 15.0 0.00 0.00 0.00 46 1006.5
20260503185601 46 219 5.0 17.0 0.00 0.00 0.00 47 1006.4
20260503184054 46 308 3.0 13.0 0.00 0.00 0.00 46 1006.5
20260503182554 47 246 5.0 13.0 0.00 0.00 0.00 46 1006.4
20260503181053 48 62 3.0 14.0 0.00 0.00 0.00 47 1006.1
20260503175554 48 5 3.0 12.0 0.00 0.00 0.00 43 1005.8
20260503174053 48 168 4.0 17.0 0.00 0.00 0.00 43 1005.8
20260503172555 48 346 3.0 15.0 0.00 0.00 0.00 44 1005.9
20260503171048 47 9 3.0 13.0 0.00 0.00 0.00 47 1006.0
20260503170318 47 70 3.0 13.0 0.00 0.00 0.00 47 1006.0